Flag for U.S.A. Weather past 2 weeks in Des Moines, Iowa, U.S.A.

Now
58 °F

Passing clouds.


Feels Like: 56 °F
Forecast: 53 / 69 °F
Wind: 10 mph from Southeast

Location: Des Moines International Airport

Current Time: Oct 22, 2014 at 10:32:14 PM

Latest Report: Oct 22, 2014 at 9:54 PM


Visibility: 10 mi

Pressure: 30.12 "Hg

Humidity: 62%

Dew point: 45 °F

Location of Des MoinesLocation

Historic Weather in Des Moines — Graph

°F

Des Moines temperature yesterday

Maximum temperature yesterday: 66 °F (at 2:54 PM)
Minimum temperature yesterday: 43 °F (at 6:54 AM)
Average temperature yesterday: 55 °F

Past Weeks' High & Low Weather Summary

 TemperatureHumidityPressure
High75 °F (Oct 16, 2:54 PM)97% (Oct 13, 5:54 AM)30.27 "Hg (Oct 13, 5:54 AM)
Low38 °F (Oct 11, 7:54 AM)24% (Oct 8, 2:54 PM)29.00 "Hg (Oct 17, 12:20 AM)
Average54 °F65%29.99 "Hg
* Reported Oct 7 8:54 PM — Oct 22 8:54 PM, Des Moines, Weather by CustomWeather, © 2014

Note: Actual official high and low records may vary slightly from our data, if they occured in-between our weather recording intervals... More about our weather records

Advertising

Des Moines weather history for previous 24 hours

 ConditionsComfort  
Time TempWeatherWind HumidityBarometerVisibility
8:54 PM
Oct 22
59 °FPartly cloudy.13 mph60%30.12 "Hg10 mi
7:54 PM60 °FPartly cloudy.13 mph60%30.13 "Hg10 mi
6:54 PM62 °FPartly sunny.15 mph56%30.12 "Hg10 mi
5:54 PM64 °FBroken clouds.12 mph54%30.11 "Hg9 mi
4:54 PM65 °FPartly sunny.18 mph51%30.10 "Hg10 mi
3:54 PM67 °FScattered clouds.15 mph49%30.11 "Hg10 mi
2:54 PM65 °FPartly sunny.15 mph51%30.14 "Hg10 mi
1:54 PM65 °FPassing clouds.18 mph51%30.15 "Hg10 mi
12:54 PM59 °FPartly sunny.16 mph58%30.19 "Hg10 mi
11:54 AM57 °FMostly cloudy.16 mph60%30.22 "Hg10 mi
10:54 AM54 °FOvercast.18 mph64%30.23 "Hg10 mi
9:54 AM50 °FPartly sunny.14 mph71%30.24 "Hg10 mi
8:54 AM46 °FScattered clouds.9 mph77%30.24 "Hg10 mi
7:54 AM44 °FPassing clouds.9 mph82%30.24 "Hg10 mi
6:54 AM44 °FPassing clouds.10 mph79%30.24 "Hg10 mi
5:54 AM45 °FPassing clouds.9 mph76%30.22 "Hg10 mi
4:54 AM45 °FClear.8 mph76%30.21 "Hg10 mi
3:54 AM47 °FClear.9 mph71%30.19 "Hg10 mi
2:54 AM48 °FClear.10 mph68%30.19 "Hg10 mi
1:54 AM49 °FClear.9 mph69%30.19 "Hg10 mi
12:54 AM50 °FClear.9 mph66%30.18 "Hg10 mi
11:54 PM
Oct 21
52 °FClear.10 mph64%30.17 "Hg10 mi
10:54 PM53 °FClear.10 mph61%30.17 "Hg10 mi
Weather by CustomWeather, © 2014

See weather overviewHow to use our weather pages